User: anonymous   Login
Location: Newark
(34.6283°N, 36.0776°E)
Time: 02:28:37
(UTC+00:00)
Language:

Tiros 1 despin weight - Orbit

View from above orbital plane
View from above orbital plane
View from above satellite
View from above satellite

Ground track
Ground track

The orbit data is extracted from the following two-line orbital elements,

1   115U 60002D   19258.18366916 -.00000013  00000-0  25617-4 0  9990
2   115  48.1662 162.5988 0033800 111.2698 249.1829 14.83474506171957
Epoch (UTC): 15 September 2019 04:24:29
Eccentricity: 0.0033800
inclination: 48.1662°
perigee height: 595 km
apogee height: 642 km
right ascension of ascending node: 162.5988°
argument of perigee: 111.2698°
revolutions per day: 14.83474506
mean anomaly at epoch: 249.1829°
orbit number at epoch: 17195

The dashed part of the orbit path shows where the satellite is in the earth's shadow,  

DLR